STARLINK-34782

Last updated on Tue Sep 16 2025 00:02:07 GMT+0000 (Coordinated Universal Time)

1 65358U 25190H 25257.60697409 -.00664328 00000+0 -71050-2 0 9991 2 65358 53.1592 269.7982 0000661 97.2709 262.8382 15.65304544 2745
UTC large
Height (km)
Speed (km/s)
/
Latitude / Longitude
Inclination (degrees)
Orbital Period (minutes)
Azimuth
Elevation
Range (km)
Doppler Factor

Next 0 passes for location: London (51.5072 / 0.1276)

Sorry there are no passes over London.